sat.trackr.live / text

‹ back to catalog

STARLINK-3802

NORAD 52286 · 2022-041AB

PAYLOAD ACTIVE UNKNOWN

§ Identity

Operator
Country
US
Launch date
2022-04-21
Launch site
AFETR
Launch vehicle
Mass (kg)
RCS (m²)

Purposes: comms

External: N2YO · Heavens-Above · Gunter

§ Orbital elements

Epoch: 2026-05-25T05:01:04.890432Z

Period
95.44 min
Inclination
53.2143°
Eccentricity
0.0001414
Mean motion
15.08833437 rev/d
Perigee alt
538.8 km
Apogee alt
540.7 km
Semi-major
6,917.9 km
B*
4.3836e-5
RAAN
115.6100°
Arg perigee
68.9520°
Mean anomaly
291.1623°
Rev number
22,605

§ Raw data

STARLINK-38021 52286U 22041AB  26145.20908438  .00000410  00000+0  43836-4 0  99962 52286  53.2143 115.6100 0001414  68.9520 291.1623 15.08833437226058

JSON: /api/v1/satellites/52286 · /tle

For live sub-satellite position, see the globe view (requires WebGL).

§ Visibility from observer

Set your observer location to see the next 7 days of passes ≥ 10°. The values pass through the URL so the page stays shareable.

No JS? Fill the form by hand. The geolocation button needs JavaScript.